GW3448 Weather Reports


time (UTC)temp
C
wind
direction
speed
KPH
gust
KPH
rain 1hr
cm
rain 24hr
cm
rain mn
cm
humidity
%
barometer
mb
20260505153356 18 278 4.8 11.3 0.00 0.00 0.00 59 1010.4
20260505153255 18 297 4.8 11.3 0.00 0.00 0.00 58 1010.4
20260505153154 18 295 3.2 8.0 0.00 0.00 0.00 58 1010.4
20260505153054 18 290 4.8 11.3 0.00 0.00 0.00 58 1010.4
20260505153019 18 287 3.2 11.3 0.00 0.00 0.00 58 1010.4
20260505153008 18 276 3.2 11.3 0.00 0.00 0.00 59 1010.4
20260505152955 18 321 3.2 11.3 0.00 0.00 0.00 59 1010.3
20260505152710 18 0 3.2 11.3 0.00 0.00 0.00 59 1010.3
20260505152349 18 302 3.2 11.3 0.00 0.00 0.00 60 1010.3
20260505152247 18 248 4.8 11.3 0.00 0.00 0.00 60 1010.3
20260505152146 17 234 4.8 11.3 0.00 0.00 0.00 60 1010.3
20260505152048 17 282 4.8 9.7 0.00 0.00 0.00 60 1010.2
20260505151945 17 239 3.2 8.0 0.00 0.00 0.00 61 1010.2
20260505151852 17 262 1.6 8.0 0.00 0.00 0.00 61 1010.2
20260505151836 17 269 3.2 6.4 0.00 0.00 0.00 61 1010.1
20260505151826 17 277 3.2 6.4 0.00 0.00 0.00 61 1010.2
20260505151801 17 286 3.2 6.4 0.00 0.00 0.00 61 1010.2
20260505151501 17 275 3.2 9.7 0.00 0.00 0.00 62 1010.2
20260505151143 17 255 3.2 12.9 0.00 0.00 0.00 62 1010.3
20260505151040 17 278 3.2 12.9 0.00 0.00 0.00 62 1010.2
20260505150940 17 271 3.2 12.9 0.00 0.00 0.00 62 1010.2
20260505150839 17 252 3.2 12.9 0.00 0.00 0.00 62 1010.2
20260505150738 17 269 3.2 12.9 0.00 0.00 0.00 63 1010.2
20260505150639 17 309 4.8 12.9 0.00 0.00 0.00 62 1010.2
20260505150537 17 272 4.8 12.9 0.00 0.00 0.00 62 1010.2
20260505150507 17 232 6.4 12.9 0.00 0.00 0.00 62 1010.2
20260505150454 17 234 8.0 12.9 0.00 0.00 0.00 61 1010.2
20260505150138 17 278 4.8 11.3 0.00 0.00 0.00 62 1010.2
20260505140623 15 277 3.2 9.7 0.00 0.00 0.00 69 1009.5
20260505140523 15 273 3.2 9.7 0.00 0.00 0.00 69 1009.5
20260505140418 15 272 3.2 9.7 0.00 0.00 0.00 70 1009.4
20260505140318 15 250 4.8 9.7 0.00 0.00 0.00 70 1009.5
20260505140219 15 273 4.8 9.7 0.00 0.00 0.00 70 1009.4
20260505140121 15 234 4.8 11.3 0.00 0.00 0.00 70 1009.5
20260505130234 14 340 1.6 4.8 0.00 0.00 0.00 73 1008.7
20260505130130 14 309 1.6 4.8 0.00 0.00 0.00 73 1008.7
20260505125029 14 318 0.0 4.8 0.00 0.00 0.00 73 1008.6
20260505124930 14 292 1.6 4.8 0.00 0.00 0.00 73 1008.6
20260505124831 14 292 1.6 4.8 0.00 0.00 0.00 73 1008.6
20260505124729 14 269 0.0 4.8 0.00 0.00 0.00 73 1008.6
20260505124630 14 265 0.0 3.2 0.00 0.00 0.00 73 1008.6
20260505124531 14 265 0.0 3.2 0.00 0.00 0.00 73 1008.6
20260505124430 14 265 0.0 3.2 0.00 0.00 0.00 73 1008.6
20260505124330 14 265 0.0 3.2 0.00 0.00 0.00 73 1008.6
20260505124232 14 265 0.0 3.2 0.00 0.00 0.00 73 1008.6
20260505124125 14 265 0.0 3.2 0.00 0.00 0.00 73 1008.6
20260505124023 14 265 1.6 3.2 0.00 0.00 0.00 73 1008.5
20260505123922 14 275 1.6 3.2 0.00 0.00 0.00 73 1008.5
20260505123822 14 264 1.6 3.2 0.00 0.00 0.00 73 1008.5
20260505123722 14 267 1.6 6.4 0.00 0.00 0.00 73 1008.4
20260505123621 14 257 1.6 6.4 0.00 0.00 0.00 73 1008.4
20260505123521 14 279 0.0 6.4 0.00 0.00 0.00 73 1008.4
20260505123419 14 286 0.0 6.4 0.00 0.00 0.00 73 1008.4
20260505123314 14 286 0.0 6.4 0.00 0.00 0.00 73 1008.4
20260505123208 14 286 0.0 6.4 0.00 0.00 0.00 73 1008.4
20260505123107 14 278 0.0 6.4 0.00 0.00 0.00 73 1008.4
20260505123007 14 260 1.6 6.4 0.00 0.00 0.00 73 1008.3
20260505122905 14 352 0.0 6.4 0.00 0.00 0.00 73 1008.3
20260505122822 14 309 0.0 6.4 0.00 0.00 0.00 74 1008.4
20260505122808 14 296 1.6 4.8 0.00 0.00 0.00 74 1008.3
20260505122746 14 294 3.2 4.8 0.00 0.00 0.00 74 1008.3
20260505122736 14 277 3.2 4.8 0.00 0.00 0.00 74 1008.3
20260505122724 14 298 3.2 4.8 0.00 0.00 0.00 74 1008.2
20260505122712 14 281 0.0 4.8 0.00 0.00 0.00 74 1008.2
20260505121934 14 299 1.6 4.8 0.00 0.00 0.00 74 1008.2
20260505121923 14 301 1.6 4.8 0.00 0.00 0.00 75 1008.1
20260505121633 14 338 1.6 4.8 0.00 0.00 0.00 75 1008.0
20260505121622 14 295 1.6 4.8 0.00 0.00 0.00 75 1008.0
20260505121301 14 283 0.0 3.2 0.00 0.00 0.00 75 1008.0
20260505121203 15 274 0.0 3.2 0.00 0.00 0.00 75 1008.0
20260505121131 15 288 0.0 3.2 0.00 0.00 0.00 75 1008.0
20260505121119 15 288 0.0 3.2 0.00 0.00 0.00 75 1007.9
20260505120806 15 288 0.0 3.2 0.00 0.00 0.00 75 1007.9
20260505120705 15 288 0.0 3.2 0.00 0.00 0.00 75 1007.9
20260505120636 15 288 0.0 3.2 0.00 0.00 0.00 75 1007.9
20260505120623 15 287 0.0 3.2 0.00 0.00 0.00 75 1007.9
20260505120301 15 259 1.6 3.2 0.00 0.00 0.00 75 1007.8
20260505120245 15 259 1.6 3.2 0.00 0.00 0.00 75 1007.8
20260505120221 15 258 1.6 3.2 0.00 0.00 0.00 75 1007.8
20260505115900 15 261 0.0 3.2 0.00 0.00 0.00 75 1007.8
20260505115841 15 262 0.0 1.6 0.00 0.00 0.00 75 1007.8
20260505115832 15 252 0.0 0.0 0.00 0.00 0.00 75 1007.8
20260505115502 15 252 0.0 0.0 0.00 0.00 0.00 74 1007.7
20260505115402 15 252 0.0 0.0 0.00 0.00 0.00 75 1007.7
20260505115305 15 252 0.0 0.0 0.00 0.00 0.00 74 1007.7
20260505115203 15 252 0.0 0.0 0.00 0.00 0.00 75 1007.7
20260505115102 15 252 0.0 0.0 0.00 0.00 0.00 75 1007.7
20260505115001 15 252 0.0 0.0 0.00 0.00 0.00 74 1007.7
20260505114901 15 252 0.0 0.0 0.00 0.00 0.00 74 1007.7
20260505114838 15 252 0.0 0.0 0.00 0.00 0.00 74 1007.7
20260505114825 15 252 0.0 0.0 0.00 0.00 0.00 74 1007.7
20260505114759 15 252 0.0 1.6 0.00 0.00 0.00 74 1007.7
20260505114533 15 252 0.0 3.2 0.00 0.00 0.00 74 1007.7
20260505114302 15 252 0.0 3.2 0.00 0.00 0.00 74 1007.6
20260505114239 15 252 0.0 3.2 0.00 0.00 0.00 74 1007.6
20260505113857 15 252 0.0 3.2 0.00 0.00 0.00 74 1007.6
20260505113843 15 252 0.0 3.2 0.00 0.00 0.00 74 1007.6
20260505113833 15 252 1.6 3.2 0.00 0.00 0.00 74 1007.7
20260505113807 15 248 1.6 3.2 0.00 0.00 0.00 74 1007.6
20260505113229 15 259 1.6 3.2 0.00 0.00 0.00 74 1007.6
20260505113131 15 255 0.0 3.2 0.00 0.00 0.00 74 1007.6
20260505113030 15 281 0.0 0.0 0.00 0.00 0.00 74 1007.6
20260505112931 15 281 0.0 0.0 0.00 0.00 0.00 74 1007.6
20260505112829 15 281 0.0 0.0 0.00 0.00 0.00 73 1007.6
20260505112733 15 281 0.0 0.0 0.00 0.00 0.00 73 1007.6
20260505112713 15 281 0.0 0.0 0.00 0.00 0.00 73 1007.6
20260505112649 15 281 0.0 3.2 0.00 0.00 0.00 73 1007.5
20260505112333 15 281 0.0 3.2 0.00 0.00 0.00 73 1007.6
20260505112230 15 281 0.0 3.2 0.00 0.00 0.00 73 1007.5
20260505112129 15 281 0.0 3.2 0.00 0.00 0.00 73 1007.5
20260505112029 15 281 0.0 3.2 0.00 0.00 0.00 73 1007.5
20260505111930 15 281 0.0 3.2 0.00 0.00 0.00 73 1007.5
20260505111831 15 281 0.0 3.2 0.00 0.00 0.00 73 1007.5
20260505111810 15 281 1.6 3.2 0.00 0.00 0.00 73 1007.4
20260505111800 15 281 1.6 3.2 0.00 0.00 0.00 73 1007.4
20260505111429 15 285 1.6 3.2 0.00 0.00 0.00 73 1007.4
20260505111329 15 287 1.6 3.2 0.00 0.00 0.00 73 1007.4
20260505111231 15 284 1.6 3.2 0.00 0.00 0.00 73 1007.3
20260505111152 15 284 1.6 3.2 0.00 0.00 0.00 73 1007.3
20260505111127 16 284 1.6 3.2 0.00 0.00 0.00 73 1007.3
20260505111116 16 291 3.2 9.7 0.00 0.00 0.00 72 1007.3
20260505110809 16 281 1.6 9.7 0.00 0.00 0.00 72 1007.3
20260505110759 16 277 1.6 9.7 0.00 0.00 0.00 72 1007.3
20260505110426 16 284 1.6 9.7 0.00 0.00 0.00 71 1007.3
20260505110325 16 294 1.6 9.7 0.00 0.00 0.00 71 1007.3
20260505110224 16 300 1.6 9.7 0.00 0.00 0.00 71 1007.3
20260505110124 16 290 3.2 9.7 0.00 0.00 0.00 71 1007.2
20260505101903 16 190 0.0 0.0 0.00 0.00 0.00 66 1006.5
20260505101804 16 190 0.0 0.0 0.00 0.00 0.00 65 1006.5
20260505101702 16 190 0.0 0.0 0.00 0.00 0.00 65 1006.5
20260505101604 16 190 0.0 0.0 0.00 0.00 0.00 65 1006.4
20260505101501 16 190 0.0 0.0 0.00 0.00 0.00 65 1006.4
20260505101405 16 190 0.0 0.0 0.00 0.00 0.00 64 1006.4
20260505101303 16 190 0.0 0.0 0.00 0.00 0.00 64 1006.4
20260505101203 16 190 0.0 0.0 0.00 0.00 0.00 64 1006.3
20260505101103 16 190 0.0 0.0 0.00 0.00 0.00 64 1006.4
20260505101003 16 190 0.0 0.0 0.00 0.00 0.00 64 1006.3
20260505100903 16 190 0.0 0.0 0.00 0.00 0.00 63 1006.3
20260505100823 16 190 0.0 0.0 0.00 0.00 0.00 63 1006.3
20260505100702 16 190 0.0 0.0 0.00 0.00 0.00 63 1006.3
20260505100603 16 190 0.0 0.0 0.00 0.00 0.00 63 1006.3
20260505100528 16 190 0.0 0.0 0.00 0.00 0.00 63 1006.3
20260505100521 16 190 0.0 0.0 0.00 0.00 0.00 63 1006.3
20260505100208 16 190 0.0 0.0 0.00 0.00 0.00 63 1006.3
20260505100149 16 190 0.0 0.0 0.00 0.00 0.00 63 1006.3
20260505100127 16 190 0.0 0.0 0.00 0.00 0.00 63 1006.3
20260505100115 16 190 0.0 0.0 0.00 0.00 0.00 63 1006.3
20260505100105 16 190 0.0 1.6 0.00 0.00 0.00 64 1006.3
20260505095837 16 190 0.0 3.2 0.00 0.00 0.00 64 1006.3
20260505095248 16 190 0.0 3.2 0.00 0.00 0.00 64 1006.2
20260505095137 16 190 0.0 3.2 0.00 0.00 0.00 64 1006.2
20260505095031 16 190 0.0 3.2 0.00 0.00 0.00 64 1006.2
20260505094930 16 190 1.6 3.2 0.00 0.00 0.00 65 1006.3
20260505094829 16 179 1.6 3.2 0.00 0.00 0.00 65 1006.3
20260505094732 16 192 3.2 3.2 0.00 0.00 0.00 64 1006.3
20260505094657 16 183 1.6 3.2 0.00 0.00 0.00 64 1006.3
20260505094632 16 194 0.0 3.2 0.00 0.00 0.00 65 1006.3
20260505094622 16 225 0.0 0.0 0.00 0.00 0.00 65 1006.3
20260505094350 16 225 0.0 0.0 0.00 0.00 0.00 65 1006.2
20260505094030 16 225 0.0 0.0 0.00 0.00 0.00 67 1006.3
20260505093930 16 225 0.0 0.0 0.00 0.00 0.00 67 1006.3
20260505093832 16 225 0.0 0.0 0.00 0.00 0.00 68 1006.3
20260505093755 16 225 0.0 0.0 0.00 0.00 0.00 68 1006.3
20260505093713 16 225 0.0 0.0 0.00 0.00 0.00 68 1006.3
20260505093659 16 225 0.0 0.0 0.00 0.00 0.00 68 1006.3
20260505093330 17 225 0.0 0.0 0.00 0.00 0.00 67 1006.4
20260505093231 17 225 0.0 0.0 0.00 0.00 0.00 67 1006.4
20260505093128 17 225 0.0 0.0 0.00 0.00 0.00 67 1006.4
20260505093101 17 225 0.0 0.0 0.00 0.00 0.00 67 1006.3
20260505093040 17 225 0.0 0.0 0.00 0.00 0.00 67 1006.4
20260505092712 17 225 0.0 0.0 0.00 0.00 0.00 67 1006.3
20260505092610 17 225 0.0 0.0 0.00 0.00 0.00 67 1006.4
20260505092503 17 225 0.0 0.0 0.00 0.00 0.00 67 1006.3
20260505092403 17 225 0.0 0.0 0.00 0.00 0.00 67 1006.4
20260505092305 17 225 0.0 0.0 0.00 0.00 0.00 67 1006.3
20260505092202 17 225 0.0 0.0 0.00 0.00 0.00 66 1006.4
20260505092143 17 225 0.0 0.0 0.00 0.00 0.00 66 1006.4
20260505092121 17 225 0.0 0.0 0.00 0.00 0.00 66 1006.4
20260505091802 17 225 0.0 0.0 0.00 0.00 0.00 66 1006.4
20260505091705 17 225 0.0 0.0 0.00 0.00 0.00 66 1006.4
20260505091603 17 225 0.0 0.0 0.00 0.00 0.00 66 1006.3
20260505091503 17 225 0.0 0.0 0.00 0.00 0.00 66 1006.3
20260505091432 17 225 0.0 0.0 0.00 0.00 0.00 66 1006.3
20260505091420 17 225 0.0 0.0 0.00 0.00 0.00 66 1006.4
20260505091103 17 225 0.0 0.0 0.00 0.00 0.00 66 1006.3
20260505091002 17 225 0.0 0.0 0.00 0.00 0.00 66 1006.3
20260505090905 17 225 0.0 0.0 0.00 0.00 0.00 65 1006.3
20260505090801 17 225 0.0 0.0 0.00 0.00 0.00 66 1006.3
20260505090726 17 225 0.0 0.0 0.00 0.00 0.00 66 1006.3
20260505090643 17 225 0.0 0.0 0.00 0.00 0.00 65 1006.3
20260505090619 17 225 0.0 0.0 0.00 0.00 0.00 65 1006.2
20260505090301 17 225 0.0 0.0 0.00 0.00 0.00 65 1006.2
20260505090204 17 225 0.0 0.0 0.00 0.00 0.00 65 1006.2
20260505090142 17 225 0.0 0.0 0.00 0.00 0.00 65 1006.2
20260505090122 17 225 0.0 0.0 0.00 0.00 0.00 64 1006.1
20260505085802 17 225 0.0 0.0 0.00 0.00 0.00 64 1006.2
20260505085745 17 225 0.0 0.0 0.00 0.00 0.00 64 1006.1
20260505085732 17 225 0.0 0.0 0.00 0.00 0.00 64 1006.1
20260505085405 17 225 0.0 0.0 0.00 0.00 0.00 65 1006.1
20260505085304 17 225 0.0 0.0 0.00 0.00 0.00 64 1006.1
20260505085201 17 225 0.0 0.0 0.00 0.00 0.00 64 1006.1
20260505085104 17 225 0.0 0.0 0.00 0.00 0.00 64 1006.2
20260505085002 17 225 0.0 0.0 0.00 0.00 0.00 64 1006.1
20260505084901 17 225 0.0 0.0 0.00 0.00 0.00 64 1006.2
20260505084801 17 225 0.0 0.0 0.00 0.00 0.00 64 1006.2
20260505084703 17 225 0.0 0.0 0.00 0.00 0.00 64 1006.2
20260505084601 17 225 0.0 0.0 0.00 0.00 0.00 64 1006.1
20260505084501 17 225 0.0 0.0 0.00 0.00 0.00 63 1006.2
20260505084402 17 225 0.0 0.0 0.00 0.00 0.00 63 1006.2
20260505084332 17 225 0.0 0.0 0.00 0.00 0.00 63 1006.1
20260505084322 17 225 0.0 0.0 0.00 0.00 0.00 63 1006.1
20260505084000 17 225 0.0 0.0 0.00 0.00 0.00 63 1006.1
20260505083850 17 225 0.0 0.0 0.00 0.00 0.00 63 1006.1
20260505083744 17 225 0.0 0.0 0.00 0.00 0.00 63 1006.1
20260505083714 17 225 0.0 0.0 0.00 0.00 0.00 63 1006.1
20260505083631 17 225 0.0 0.0 0.00 0.00 0.00 62 1006.1
20260505083607 17 225 0.0 0.0 0.00 0.00 0.00 62 1006.1
20260505083556 17 225 0.0 0.0 0.00 0.00 0.00 62 1006.1
20260505083329 17 225 0.0 0.0 0.00 0.00 0.00 62 1006.1
20260505083315 17 225 0.0 0.0 0.00 0.00 0.00 62 1006.1
20260505082737 17 225 0.0 0.0 0.00 0.00 0.00 62 1006.1
20260505082720 17 225 0.0 0.0 0.00 0.00 0.00 62 1006.0
20260505082710 17 225 0.0 0.0 0.00 0.00 0.00 62 1006.0
20260505082649 17 225 0.0 0.0 0.00 0.00 0.00 62 1006.0
20260505082604 17 225 0.0 0.0 0.00 0.00 0.00 62 1006.0
20260505082333 17 225 0.0 0.0 0.00 0.00 0.00 62 1006.0
20260505082051 17 225 0.0 0.0 0.00 0.00 0.00 62 1006.1
20260505081822 17 225 0.0 0.0 0.00 0.00 0.00 61 1006.1
20260505081812 17 225 0.0 0.0 0.00 0.00 0.00 61 1006.1
20260505081210 17 225 0.0 0.0 0.00 0.00 0.00 61 1006.0
20260505081110 17 225 0.0 0.0 0.00 0.00 0.00 60 1005.9
20260505081009 17 225 0.0 0.0 0.00 0.00 0.00 59 1006.0
20260505080904 17 225 0.0 0.0 0.00 0.00 0.00 59 1006.0
20260505080802 17 225 0.0 0.0 0.00 0.00 0.00 59 1005.9
20260505080723 17 225 0.0 0.0 0.00 0.00 0.00 59 1005.9
20260505080713 17 225 0.0 0.0 0.00 0.00 0.00 59 1005.9
20260505080705 17 225 0.0 1.6 0.00 0.00 0.00 58 1005.9
20260505080302 17 225 0.0 1.6 0.00 0.00 0.00 59 1005.9
20260505080202 17 225 0.0 1.6 0.00 0.00 0.00 59 1005.9
20260505080104 17 225 0.0 1.6 0.00 0.00 0.00 60 1005.8
20260505080004 17 225 0.0 3.2 0.00 0.00 0.00 59 1005.9
20260505075903 17 225 0.0 3.2 0.00 0.00 0.00 60 1005.9
20260505075829 17 225 0.0 3.2 0.00 0.00 0.00 59 1005.9
20260505075820 17 225 0.0 3.2 0.00 0.00 0.00 59 1005.9
20260505075502 17 228 0.0 3.2 0.00 0.00 0.00 59 1005.9
20260505075403 17 255 0.0 3.2 0.00 0.00 0.00 58 1005.9
20260505075304 17 255 1.6 3.2 0.00 0.00 0.00 57 1005.8
20260505075201 17 255 1.6 3.2 0.00 0.00 0.00 56 1005.9
20260505075122 17 259 1.6 3.2 0.00 0.00 0.00 57 1005.8
20260505075106 17 265 0.0 3.2 0.00 0.00 0.00 58 1005.9
20260505075044 17 303 0.0 3.2 0.00 0.00 0.00 60 1005.9
20260505075031 17 304 0.0 3.2 0.00 0.00 0.00 60 1005.9
20260505074805 17 278 0.0 3.2 0.00 0.00 0.00 60 1005.8
20260505074753 17 274 0.0 4.8 0.00 0.00 0.00 60 1005.8
20260505074201 18 267 0.0 4.8 0.00 0.00 0.00 60 1005.7
20260505074103 17 267 1.6 4.8 0.00 0.00 0.00 60 1005.8
20260505074002 17 267 1.6 4.8 0.00 0.00 0.00 60 1005.7
20260505073902 17 265 3.2 4.8 0.00 0.00 0.00 61 1005.7
20260505073801 17 258 3.2 4.8 0.00 0.00 0.00 61 1005.7
20260505073702 17 263 1.6 4.8 0.00 0.00 0.00 61 1005.7
20260505073602 17 260 0.0 4.8 0.00 0.00 0.00 61 1005.7
20260505073504 17 260 0.0 0.0 0.00 0.00 0.00 61 1005.7
20260505073404 17 260 0.0 0.0 0.00 0.00 0.00 61 1005.7
20260505073304 17 260 0.0 0.0 0.00 0.00 0.00 60 1005.6
20260505073201 17 260 0.0 0.0 0.00 0.00 0.00 61 1005.7
20260505073103 17 260 0.0 0.0 0.00 0.00 0.00 60 1005.6
20260505073001 17 260 0.0 1.6 0.00 0.00 0.00 60 1005.6
20260505072903 17 260 0.0 3.2 0.00 0.00 0.00 60 1005.6
20260505072801 17 260 0.0 3.2 0.00 0.00 0.00 60 1005.6
20260505072726 17 260 0.0 3.2 0.00 0.00 0.00 60 1005.6
20260505072716 17 260 0.0 3.2 0.00 0.00 0.00 60 1005.5
20260505072705 17 260 0.0 3.2 0.00 0.00 0.00 59 1005.5
20260505072641 17 260 0.0 3.2 0.00 0.00 0.00 59 1005.5
20260505072104 17 260 1.6 3.2 0.00 0.00 0.00 60 1005.4
20260505072004 18 261 0.0 3.2 0.00 0.00 0.00 61 1005.4
20260505071905 18 205 0.0 1.6 0.00 0.00 0.00 61 1005.5
20260505071804 18 200 0.0 1.6 0.00 0.00 0.00 62 1005.5
20260505071704 18 200 0.0 1.6 0.00 0.00 0.00 61 1005.5
20260505071641 18 200 0.0 1.6 0.00 0.00 0.00 61 1005.4
20260505071632 18 200 0.0 1.6 0.00 0.00 0.00 61 1005.5
20260505071305 18 200 0.0 1.6 0.00 0.00 0.00 60 1005.5
20260505071202 18 200 1.6 1.6 0.00 0.00 0.00 60 1005.5
20260505071108 18 198 1.6 1.6 0.00 0.00 0.00 60 1005.5
20260505071000 18 193 0.0 1.6 0.00 0.00 0.00 60 1005.5
20260505070902 18 170 0.0 3.2 0.00 0.00 0.00 60 1005.5
20260505070802 18 146 0.0 3.2 0.00 0.00 0.00 60 1005.5
20260505070702 18 146 0.0 3.2 0.00 0.00 0.00 60 1005.5
20260505070602 18 146 0.0 3.2 0.00 0.00 0.00 60 1005.5
20260505070502 18 146 0.0 3.2 0.00 0.00 0.00 60 1005.4
20260505070403 18 146 0.0 3.2 0.00 0.00 0.00 60 1005.4
20260505070302 18 147 0.0 3.2 0.00 0.00 0.00 59 1005.4
20260505070201 18 184 0.0 3.2 0.00 0.00 0.00 59 1005.3
20260505070000 18 184 1.6 3.2 0.00 0.00 0.00 59 1005.4
20260505065903 18 180 1.6 3.2 0.00 0.00 0.00 59 1005.4
20260505065803 18 173 1.6 3.2 0.00 0.00 0.00 58 1005.4
20260505065706 18 168 1.6 3.2 0.00 0.00 0.00 58 1005.4
20260505065600 18 134 1.6 4.8 0.00 0.00 0.00 58 1005.4
20260505065504 18 117 1.6 4.8 0.00 0.00 0.00 58 1005.4
20260505065400 19 114 1.6 4.8 0.00 0.00 0.00 58 1005.4
20260505065303 19 107 0.0 4.8 0.00 0.00 0.00 58 1005.4
20260505065232 19 105 0.0 4.8 0.00 0.00 0.00 58 1005.4
20260505065223 19 76 1.6 4.8 0.00 0.00 0.00 58 1005.3
20260505064902 19 74 1.6 4.8 0.00 0.00 0.00 57 1005.3
20260505064802 19 69 0.0 4.8 0.00 0.00 0.00 57 1005.3
20260505064702 19 67 0.0 4.8 0.00 0.00 0.00 57 1005.3
20260505064601 19 73 0.0 0.0 0.00 0.00 0.00 57 1005.3
20260505064502 19 73 0.0 0.0 0.00 0.00 0.00 56 1005.2
20260505064402 19 73 0.0 0.0 0.00 0.00 0.00 56 1005.2
20260505064305 19 73 0.0 0.0 0.00 0.00 0.00 55 1005.2
20260505064202 19 73 0.0 0.0 0.00 0.00 0.00 55 1005.1
20260505064107 19 73 0.0 0.0 0.00 0.00 0.00 55 1005.1
20260505064002 19 73 0.0 0.0 0.00 0.00 0.00 55 1005.1
20260505063902 19 73 0.0 0.0 0.00 0.00 0.00 55 1005.0
20260505063800 19 73 0.0 0.0 0.00 0.00 0.00 55 1005.1
20260505063720 19 73 0.0 0.0 0.00 0.00 0.00 56 1005.1
20260505063706 19 73 0.0 0.0 0.00 0.00 0.00 54 1005.0
20260505063655 19 73 0.0 0.0 0.00 0.00 0.00 55 1005.0
20260505063603 19 73 0.0 0.0 0.00 0.00 0.00 54 1005.0
20260505063336 19 73 0.0 0.0 0.00 0.00 0.00 53 1005.0
20260505063322 20 73 0.0 0.0 0.00 0.00 0.00 53 1005.0
20260505062729 20 73 0.0 0.0 0.00 0.00 0.00 54 1005.0
20260505062635 20 73 0.0 0.0 0.00 0.00 0.00 53 1005.0
20260505062534 20 73 0.0 0.0 0.00 0.00 0.00 53 1005.0
20260505062514 20 73 0.0 0.0 0.00 0.00 0.00 52 1004.9
20260505062452 20 73 0.0 0.0 0.00 0.00 0.00 52 1005.0
20260505062130 20 73 0.0 0.0 0.00 0.00 0.00 53 1005.0
20260505062030 20 73 0.0 0.0 0.00 0.00 0.00 53 1005.0
20260505061955 20 73 0.0 0.0 0.00 0.00 0.00 53 1004.9
20260505061928 20 73 0.0 0.0 0.00 0.00 0.00 53 1004.9
20260505061919 20 73 0.0 0.0 0.00 0.00 0.00 53 1005.0
20260505061907 20 73 0.0 0.0 0.00 0.00 0.00 52 1005.0
20260505061329 20 73 0.0 0.0 0.00 0.00 0.00 52 1005.0
20260505061230 20 73 0.0 0.0 0.00 0.00 0.00 53 1005.0
20260505061129 20 73 0.0 0.0 0.00 0.00 0.00 52 1005.0
20260505061030 20 73 0.0 0.0 0.00 0.00 0.00 52 1005.1
20260505060928 20 73 0.0 0.0 0.00 0.00 0.00 52 1005.1
20260505060831 21 73 0.0 0.0 0.00 0.00 0.00 53 1005.1
20260505060726 21 73 0.0 0.0 0.00 0.00 0.00 55 1005.1
20260505060618 21 73 0.0 0.0 0.00 0.00 0.00 51 1005.1
20260505060507 21 73 0.0 0.0 0.00 0.00 0.00 51 1005.0
20260505060408 21 73 0.0 1.6 0.00 0.00 0.00 51 1005.0
20260505060307 21 73 0.0 1.6 0.00 0.00 0.00 51 1005.0
20260505060201 21 73 0.0 1.6 0.00 0.00 0.00 52 1005.1
20260505060105 21 73 0.0 1.6 0.00 0.00 0.00 51 1005.1
20260505060002 21 73 0.0 3.2 0.00 0.00 0.00 50 1005.1
20260505055909 21 73 0.0 3.2 0.00 0.00 0.00 50 1005.2
20260505055802 21 73 0.0 3.2 0.00 0.00 0.00 50 1005.1
20260505055703 21 73 0.0 3.2 0.00 0.00 0.00 50 1005.1
20260505055601 21 73 0.0 3.2 0.00 0.00 0.00 49 1005.1
20260505055502 21 73 1.6 3.2 0.00 0.00 0.00 49 1005.1
20260505055407 21 71 0.0 4.8 0.00 0.00 0.00 49 1005.1
20260505055303 21 44 0.0 4.8 0.00 0.00 0.00 48 1005.1
20260505055201 21 20 1.6 4.8 0.00 0.00 0.00 48 1005.2
20260505055113 21 13 0.0 4.8 0.00 0.00 0.00 48 1005.1
20260505055057 21 17 0.0 4.8 0.00 0.00 0.00 48 1005.0
20260505055047 21 319 0.0 4.8 0.00 0.00 0.00 47 1004.9
20260505055026 21 319 1.6 4.8 0.00 0.00 0.00 47 1004.9
20260505054533 21 344 1.6 4.8 0.00 0.00 0.00 46 1004.9
20260505054521 21 58 3.2 4.8 0.00 0.00 0.00 45 1004.9
20260505054458 21 46 3.2 4.8 0.00 0.00 0.00 45 1004.8
20260505054445 21 67 1.6 4.8 0.00 0.00 0.00 45 1004.7
20260505054433 21 77 0.0 1.6 0.00 0.00 0.00 45 1004.6
20260505054419 21 150 0.0 1.6 0.00 0.00 0.00 44 1004.5
20260505053703 21 221 0.0 1.6 0.00 0.00 0.00 45 1004.4
20260505053331 21 262 0.0 1.6 0.00 0.00 0.00 45 1004.4
20260505053230 21 262 1.6 1.6 0.00 0.00 0.00 44 1004.4
20260505053130 21 261 1.6 1.6 0.00 0.00 0.00 44 1004.4
20260505053032 21 257 1.6 1.6 0.00 0.00 0.00 44 1004.4
20260505052929 21 260 0.0 1.6 0.00 0.00 0.00 44 1004.4
20260505052830 21 252 1.6 1.6 0.00 0.00 0.00 44 1004.4
20260505052729 21 250 1.6 1.6 0.00 0.00 0.00 45 1004.4
20260505052630 22 246 1.6 1.6 0.00 0.00 0.00 44 1004.5
20260505052611 22 244 1.6 1.6 0.00 0.00 0.00 44 1004.4
20260505052601 22 244 0.0 1.6 0.00 0.00 0.00 44 1004.5
20260505052312 22 246 0.0 1.6 0.00 0.00 0.00 45 1004.4
20260505052259 22 246 0.0 1.6 0.00 0.00 0.00 44 1004.5
20260505052248 22 246 0.0 1.6 0.00 0.00 0.00 44 1004.4
20260505052238 22 246 0.0 1.6 0.00 0.00 0.00 44 1004.5
20260505052216 22 246 0.0 1.6 0.00 0.00 0.00 44 1004.5
20260505052205 22 249 0.0 1.6 0.00 0.00 0.00 44 1004.5
20260505051449 22 257 0.0 1.6 0.00 0.00 0.00 43 1004.5
20260505051438 22 257 0.0 1.6 0.00 0.00 0.00 43 1004.5
20260505051204 22 257 0.0 1.6 0.00 0.00 0.00 42 1004.4
20260505051152 22 257 0.0 1.6 0.00 0.00 0.00 41 1004.4
20260505050602 22 257 1.6 3.2 0.00 0.00 0.00 41 1004.4
20260505050502 23 258 0.0 3.2 0.00 0.00 0.00 40 1004.4
20260505050401 23 258 0.0 3.2 0.00 0.00 0.00 41 1004.4
20260505050302 23 258 0.0 3.2 0.00 0.00 0.00 41 1004.4
20260505050202 23 258 0.0 3.2 0.00 0.00 0.00 40 1004.4
20260505050131 23 258 1.6 3.2 0.00 0.00 0.00 40 1004.4
20260505050117 23 258 3.2 3.2 0.00 0.00 0.00 40 1004.4
20260505050106 23 257 1.6 3.2 0.00 0.00 0.00 39 1004.4
20260505041733 24 173 0.0 4.8 0.00 0.00 0.00 36 1004.2
20260505041722 24 192 0.0 4.8 0.00 0.00 0.00 36 1004.2
20260505041405 24 189 1.6 4.8 0.00 0.00 0.00 37 1004.1
20260505041301 24 178 1.6 4.8 0.00 0.00 0.00 35 1004.1
20260505041202 24 158 1.6 4.8 0.00 0.00 0.00 36 1004.1
20260505041136 24 158 1.6 4.8 0.00 0.00 0.00 36 1004.1
20260505041122 24 186 0.0 4.8 0.00 0.00 0.00 36 1004.1
20260505041110 24 184 0.0 3.2 0.00 0.00 0.00 37 1004.1
20260505041047 24 184 0.0 3.2 0.00 0.00 0.00 37 1004.1
20260505040502 24 184 0.0 3.2 0.00 0.00 0.00 38 1004.1
20260505040406 24 184 0.0 3.2 0.00 0.00 0.00 38 1004.1
20260505040319 24 184 1.6 3.2 0.00 0.00 0.00 37 1004.1
20260505040202 24 184 1.6 3.2 0.00 0.00 0.00 37 1004.1
20260505040103 24 182 1.6 3.2 0.00 0.00 0.00 36 1004.0
20260505040006 24 187 0.0 3.2 0.00 0.00 0.00 36 1004.0
20260505035902 24 194 0.0 1.6 0.00 0.00 0.00 37 1004.1
20260505035807 24 203 0.0 1.6 0.00 0.00 0.00 38 1004.1
20260505035701 24 206 0.0 1.6 0.00 0.00 0.00 38 1004.0
20260505035601 24 206 0.0 1.6 0.00 0.00 0.00 38 1004.1
20260505035544 24 206 0.0 1.6 0.00 0.00 0.00 37 1004.0
20260505035535 24 206 0.0 1.6 0.00 0.00 0.00 37 1004.0
20260505035204 25 205 0.0 1.6 0.00 0.00 0.00 37 1004.0
20260505035105 25 205 0.0 1.6 0.00 0.00 0.00 37 1004.0
20260505035003 25 205 0.0 1.6 0.00 0.00 0.00 37 1004.0
20260505034906 25 205 0.0 1.6 0.00 0.00 0.00 38 1004.0
20260505034802 25 205 0.0 1.6 0.00 0.00 0.00 38 1004.0
20260505034727 25 205 0.0 1.6 0.00 0.00 0.00 39 1003.9
20260505034720 25 205 0.0 1.6 0.00 0.00 0.00 39 1003.9
20260505034405 25 205 0.0 1.6 0.00 0.00 0.00 39 1003.9
20260505034301 25 205 0.0 1.6 0.00 0.00 0.00 39 1003.9
20260505034202 25 205 0.0 1.6 0.00 0.00 0.00 39 1003.9
20260505034105 25 205 0.0 1.6 0.00 0.00 0.00 39 1003.9
20260505034041 25 207 0.0 1.6 0.00 0.00 0.00 39 1003.9
20260505034033 25 209 0.0 1.6 0.00 0.00 0.00 39 1003.9
20260505033701 25 209 0.0 1.6 0.00 0.00 0.00 39 1003.9
20260505033602 25 213 0.0 1.6 0.00 0.00 0.00 39 1003.9
20260505033501 25 214 0.0 1.6 0.00 0.00 0.00 39 1003.9
20260505033402 25 214 0.0 1.6 0.00 0.00 0.00 39 1003.9
20260505033326 25 214 0.0 1.6 0.00 0.00 0.00 38 1003.9
20260505033303 25 214 0.0 1.6 0.00 0.00 0.00 40 1003.8
20260505033252 25 214 0.0 1.6 0.00 0.00 0.00 39 1003.9
20260505032901 26 214 0.0 1.6 0.00 0.00 0.00 39 1003.9
20260505032813 26 214 0.0 1.6 0.00 0.00 0.00 38 1003.8
20260505032702 26 214 0.0 1.6 0.00 0.00 0.00 38 1003.8
20260505032604 26 215 0.0 1.6 0.00 0.00 0.00 37 1003.8
20260505032501 26 215 0.0 1.6 0.00 0.00 0.00 36 1003.9
20260505032446 26 218 0.0 1.6 0.00 0.00 0.00 36 1003.8
20260505032434 26 224 0.0 1.6 0.00 0.00 0.00 36 1003.8
20260505032131 26 228 0.0 1.6 0.00 0.00 0.00 35 1003.8
20260505032121 26 228 0.0 1.6 0.00 0.00 0.00 35 1003.8
20260505031809 27 233 0.0 1.6 0.00 0.00 0.00 35 1003.8
20260505031731 27 242 0.0 0.0 0.00 0.00 0.00 34 1003.8
20260505031721 27 242 0.0 0.0 0.00 0.00 0.00 34 1003.8
20260505031402 27 242 0.0 0.0 0.00 0.00 0.00 33 1003.8
20260505031308 27 242 0.0 1.6 0.00 0.00 0.00 33 1003.8
20260505031201 27 242 0.0 1.6 0.00 0.00 0.00 33 1003.8
20260505031117 27 242 0.0 1.6 0.00 0.00 0.00 33 1003.7
20260505031100 27 242 0.0 1.6 0.00 0.00 0.00 32 1003.7
20260505031050 27 242 0.0 1.6 0.00 0.00 0.00 31 1003.8
20260505030807 27 242 0.0 1.6 0.00 0.00 0.00 30 1003.8
20260505030756 27 242 0.0 1.6 0.00 0.00 0.00 30 1003.7
20260505030525 28 242 0.0 1.6 0.00 0.00 0.00 31 1003.7
20260505030202 28 248 0.0 1.6 0.00 0.00 0.00 29 1003.7
20260505030104 28 248 0.0 1.6 0.00 0.00 0.00 30 1003.7
20260505030002 28 248 0.0 1.6 0.00 0.00 0.00 29 1003.7
20260505025902 28 248 0.0 1.6 0.00 0.00 0.00 29 1003.6
20260505025801 28 248 0.0 1.6 0.00 0.00 0.00 29 1003.7
20260505025701 28 255 0.0 1.6 0.00 0.00 0.00 28 1003.7
20260505025605 28 255 0.0 1.6 0.00 0.00 0.00 28 1003.6
20260505025502 28 255 0.0 1.6 0.00 0.00 0.00 28 1003.6
20260505025404 28 255 0.0 1.6 0.00 0.00 0.00 28 1003.6
20260505025301 28 255 0.0 1.6 0.00 0.00 0.00 28 1003.6
20260505025156 28 255 0.0 1.6 0.00 0.00 0.00 28 1003.6
20260505025056 28 255 0.0 1.6 0.00 0.00 0.00 28 1003.6
20260505024956 29 255 0.0 1.6 0.00 0.00 0.00 27 1003.6
20260505024854 29 255 0.0 1.6 0.00 0.00 0.00 28 1003.6
20260505024755 29 255 0.0 1.6 0.00 0.00 0.00 27 1003.6
20260505024652 29 259 0.0 1.6 0.00 0.00 0.00 26 1003.4
20260505024551 29 259 0.0 3.2 0.00 0.00 0.00 27 1003.6
20260505024446 29 259 0.0 3.2 0.00 0.00 0.00 27 1003.6
20260505024421 29 275 0.0 3.2 0.00 0.00 0.00 26 1003.4
20260505024358 29 288 0.0 3.2 0.00 0.00 0.00 25 1003.4
20260505024032 29 300 0.0 3.2 0.00 0.00 0.00 25 1003.4
20260505023933 30 300 0.0 3.2 0.00 0.00 0.00 25 1003.6
20260505023829 30 299 1.6 3.2 0.00 0.00 0.00 25 1003.4
20260505023730 30 297 0.0 3.2 0.00 0.00 0.00 24 1003.4
20260505023630 30 266 0.0 1.6 0.00 0.00 0.00 23 1003.4
20260505023531 30 302 0.0 3.2 0.00 0.00 0.00 24 1003.6
20260505023432 30 302 0.0 3.2 0.00 0.00 0.00 24 1003.6
20260505023331 30 302 0.0 3.2 0.00 0.00 0.00 23 1003.6
20260505023230 30 302 0.0 3.2 0.00 0.00 0.00 23 1003.4
20260505023141 30 302 0.0 3.2 0.00 0.00 0.00 23 1003.4
20260505023125 30 300 0.0 3.2 0.00 0.00 0.00 23 1003.4
20260505023116 30 296 1.6 3.2 0.00 0.00 0.00 23 1003.4
20260505022720 30 307 1.6 3.2 0.00 0.00 0.00 23 1003.4
20260505022617 30 288 0.0 3.2 0.00 0.00 0.00 24 1003.4
20260505022518 30 313 0.0 3.2 0.00 0.00 0.00 24 1003.4
20260505022417 30 314 1.6 3.2 0.00 0.00 0.00 23 1003.4
20260505022313 30 327 1.6 3.2 0.00 0.00 0.00 23 1003.4
20260505022211 30 294 1.6 3.2 0.00 0.00 0.00 23 1003.4
20260505022111 30 305 0.0 1.6 0.00 0.00 0.00 23 1003.6
20260505022008 30 306 0.0 1.6 0.00 0.00 0.00 23 1003.4
20260505021936 30 302 0.0 1.6 0.00 0.00 0.00 23 1003.4
20260505021923 30 304 1.6 4.8 0.00 0.00 0.00 23 1003.6
20260505021901 30 290 1.6 4.8 0.00 0.00 0.00 23 1003.4
20260505021848 30 327 0.0 6.4 0.00 0.00 0.00 23 1003.4
20260505021305 30 352 0.0 6.4 0.00 0.00 0.00 23 1003.4
20260505021201 30 0 0.0 6.4 0.00 0.00 0.00 23 1003.4
20260505021107 30 0 1.6 6.4 0.00 0.00 0.00 23 1003.4
20260505021001 30 5 1.6 6.4 0.00 0.00 0.00 22 1003.4
20260505020945 30 352 1.6 6.4 0.00 0.00 0.00 22 1003.6
20260505020932 30 329 3.2 6.4 0.00 0.00 0.00 23 1003.4
20260505020601 31 20 3.2 6.4 0.00 0.00 0.00 22 1003.4
20260505020506 31 352 3.2 6.4 0.00 0.00 0.00 22 1003.4
20260505020401 31 19 1.6 4.8 0.00 0.00 0.00 21 1003.6
20260505020305 31 339 1.6 4.8 0.00 0.00 0.00 22 1003.6
20260505020214 31 318 1.6 6.4 0.00 0.00 0.00 22 1003.6
20260505020159 31 307 1.6 6.4 0.00 0.00 0.00 22 1003.6
20260505020146 31 348 1.6 6.4 0.00 0.00 0.00 22 1003.6
20260505015842 31 313 1.6 12.9 0.00 0.00 0.00 22 1003.6
20260505015820 31 352 3.2 12.9 0.00 0.00 0.00 22 1003.6
20260505015504 31 30 1.6 12.9 0.00 0.00 0.00 22 1003.7
20260505015436 31 314 3.2 12.9 0.00 0.00 0.00 22 1003.6
20260505015421 31 306 3.2 12.9 0.00 0.00 0.00 21 1003.7
20260505015357 31 302 3.2 12.9 0.00 0.00 0.00 21 1003.7
20260505015345 31 337 4.8 12.9 0.00 0.00 0.00 22 1003.6
20260505014836 31 330 3.2 6.4 0.00 0.00 0.00 22 1003.7
20260505014812 31 0 1.6 6.4 0.00 0.00 0.00 22 1003.7
20260505014800 31 263 1.6 6.4 0.00 0.00 0.00 22 1003.8
20260505014529 31 350 1.6 6.4 0.00 0.00 0.00 22 1003.8
20260505014242 31 305 3.2 6.4 0.00 0.00 0.00 21 1003.8
20260505014232 31 10 3.2 6.4 0.00 0.00 0.00 22 1003.8
20260505014208 31 315 3.2 6.4 0.00 0.00 0.00 22 1003.8
20260505013934 31 286 1.6 6.4 0.00 0.00 0.00 22 1003.8
20260505013601 31 277 3.2 6.4 0.00 0.00 0.00 23 1003.9
20260505013503 31 343 3.2 6.4 0.00 0.00 0.00 22 1003.8
20260505013402 31 352 3.2 6.4 0.00 0.00 0.00 22 1003.8
20260505013301 31 5 3.2 6.4 0.00 0.00 0.00 22 1003.9
20260505013203 31 36 3.2 6.4 0.00 0.00 0.00 21 1003.9
20260505013109 31 352 1.6 6.4 0.00 0.00 0.00 21 1003.9
20260505013000 31 11 3.2 6.4 0.00 0.00 0.00 21 1003.9
20260505012901 31 286 4.8 6.4 0.00 0.00 0.00 21 1003.9
20260505012802 31 294 3.2 6.4 0.00 0.00 0.00 21 1003.8
20260505012701 31 279 3.2 6.4 0.00 0.00 0.00 21 1003.9
20260505012600 31 350 3.2 6.4 0.00 0.00 0.00 22 1003.9
20260505012501 31 5 3.2 6.4 0.00 0.00 0.00 22 1003.9
20260505012401 31 309 1.6 6.4 0.00 0.00 0.00 22 1003.9
20260505012301 31 34 3.2 6.4 0.00 0.00 0.00 22 1004.0
20260505012203 31 295 1.6 6.4 0.00 0.00 0.00 22 1004.0
20260505012124 31 346 1.6 8.0 0.00 0.00 0.00 22 1004.0
20260505012110 31 300 1.6 8.0 0.00 0.00 0.00 21 1004.0
20260505012059 31 321 3.2 8.0 0.00 0.00 0.00 22 1004.0
20260505011816 31 329 3.2 8.0 0.00 0.00 0.00 23 1004.0
20260505011454 31 273 3.2 8.0 0.00 0.00 0.00 23 1004.1
20260505011353 31 326 4.8 8.0 0.00 0.00 0.00 23 1004.1
20260505011254 31 307 4.8 8.0 0.00 0.00 0.00 23 1004.2
20260505011152 31 346 3.2 8.0 0.00 0.00 0.00 23 1004.1
20260505011054 31 341 3.2 8.0 0.00 0.00 0.00 23 1004.1
20260505010951 31 5 1.6 6.4 0.00 0.00 0.00 24 1004.2
20260505010853 31 10 3.2 4.8 0.00 0.00 0.00 23 1004.2
20260505010743 31 351 3.2 4.8 0.00 0.00 0.00 22 1004.1
20260505010644 31 15 1.6 4.8 0.00 0.00 0.00 21 1004.1
20260505010537 31 0 1.6 4.8 0.00 0.00 0.00 21 1004.1
20260505010436 31 350 1.6 4.8 0.00 0.00 0.00 22 1004.1
20260505010336 31 38 3.2 4.8 0.00 0.00 0.00 22 1004.1
20260505010239 31 49 1.6 4.8 0.00 0.00 0.00 22 1004.1
20260505010137 31 100 0.0 4.8 0.00 0.00 0.00 21 1004.1
20260505010034 31 9 1.6 6.4 0.00 0.00 0.00 21 1004.1
20260505005933 31 61 1.6 6.4 0.00 0.00 0.00 21 1004.1
20260505005839 31 64 3.2 6.4 0.00 0.00 0.00 21 1004.1
20260505005731 31 52 3.2 6.4 0.00 0.00 0.00 22 1004.1
20260505005631 31 5 3.2 6.4 0.00 0.00 0.00 21 1004.1
20260505005601 31 105 1.6 6.4 0.00 0.00 0.00 21 1004.1
20260505005550 31 58 1.6 6.4 0.00 0.00 0.00 21 1004.1
20260505005229 31 227 1.6 6.4 0.00 0.00 0.00 22 1004.2
20260505005130 31 162 1.6 6.4 0.00 0.00 0.00 22 1004.2
20260505005101 31 188 1.6 6.4 0.00 0.00 0.00 21 1004.2
20260505005049 31 190 1.6 6.4 0.00 0.00 0.00 22 1004.2
20260505004729 31 165 1.6 6.4 0.00 0.00 0.00 22 1004.2
20260505004629 31 65 3.2 6.4 0.00 0.00 0.00 21 1004.2
20260505004529 31 40 4.8 8.0 0.00 0.00 0.00 22 1004.3
20260505004431 31 352 4.8 8.0 0.00 0.00 0.00 22 1004.3
20260505004329 31 352 3.2 8.0 0.00 0.00 0.00 23 1004.3
20260505004230 31 336 3.2 8.0 0.00 0.00 0.00 23 1004.3
20260505004129 31 352 3.2 8.0 0.00 0.00 0.00 23 1004.3
20260505004029 31 352 4.8 8.0 0.00 0.00 0.00 23 1004.3
20260505003929 31 342 4.8 8.0 0.00 0.00 0.00 24 1004.3
20260505003831 31 338 4.8 8.0 0.00 0.00 0.00 24 1004.4
20260505003754 31 321 4.8 8.0 0.00 0.00 0.00 23 1004.3
20260505003729 31 315 3.2 8.0 0.00 0.00 0.00 24 1004.4
20260505003717 31 20 3.2 8.0 0.00 0.00 0.00 25 1004.4
20260505003706 31 352 3.2 8.0 0.00 0.00 0.00 24 1004.3
20260505003434 31 90 4.8 11.3 0.00 0.00 0.00 23 1004.3
20260505003144 31 11 4.8 11.3 0.00 0.00 0.00 23 1004.3
20260505002845 31 60 3.2 11.3 0.00 0.00 0.00 22 1004.4
20260505002831 31 162 3.2 11.3 0.00 0.00 0.00 22 1004.4
20260505002808 31 85 3.2 11.3 0.00 0.00 0.00 22 1004.4
20260505002420 31 128 4.8 11.3 0.00 0.00 0.00 22 1004.4
20260505002319 31 238 1.6 6.4 0.00 0.00 0.00 22 1004.4
20260505002219 31 309 1.6 6.4 0.00 0.00 0.00 22 1004.4
20260505002117 31 269 3.2 6.4 0.00 0.00 0.00 22 1004.4
20260505002022 31 352 3.2 8.0 0.00 0.00 0.00 23 1004.4
20260505002003 31 310 3.2 9.7 0.00 0.00 0.00 24 1004.5
20260505001952 31 9 1.6 9.7 0.00 0.00 0.00 25 1004.4
20260505001940 31 223 1.6 9.7 0.00 0.00 0.00 23 1004.4
20260505001659 31 234 1.6 9.7 0.00 0.00 0.00 24 1004.5
20260505001425 31 305 3.2 9.7 0.00 0.00 0.00 24 1004.5
20260505001414 31 48 6.4 9.7 0.00 0.00 0.00 25 1004.5
20260505001126 31 350 4.8 8.0 0.00 0.00 0.00 25 1004.5
20260505000805 31 74 1.6 9.7 0.00 0.00 0.00 24 1004.5
20260505000703 31 84 3.2 9.7 0.00 0.00 0.00 24 1004.5
20260505000603 31 286 3.2 9.7 0.00 0.00 0.00 24 1004.5
20260505000502 31 248 3.2 9.7 0.00 0.00 0.00 24 1004.5
20260505000405 31 255 3.2 9.7 0.00 0.00 0.00 24 1004.5
20260505000303 31 261 3.2 9.7 0.00 0.00 0.00 24 1004.6
20260505000204 31 289 6.4 9.7 0.00 0.00 0.00 24 1004.5
20260505000104 31 302 6.4 9.7 0.00 0.00 0.00 25 1004.5
20260505000003 31 5 4.8 9.7 0.00 0.00 0.00 25 1004.5
20260504235901 31 28 3.2 6.4 0.00 0.00 0.00 25 1004.5
20260504235803 31 62 3.2 6.4 0.00 0.00 0.00 26 1004.5
20260504235728 31 69 3.2 6.4 0.00 0.00 0.00 26 1004.6
20260504235705 31 61 3.2 6.4 0.00 0.00 0.00 25 1004.5
20260504235653 31 38 3.2 6.4 0.00 0.00 0.00 24 1004.5
20260504235301 31 57 3.2 6.4 0.00 0.00 0.00 25 1004.6
20260504235202 31 101 3.2 6.4 0.00 0.00 0.00 24 1004.5
20260504235104 31 39 4.8 11.3 0.00 0.00 0.00 25 1004.5
20260504235005 31 53 4.8 11.3 0.00 0.00 0.00 25 1004.6
20260504234902 31 62 4.8 11.3 0.00 0.00 0.00 24 1004.6
20260504234803 31 94 3.2 11.3 0.00 0.00 0.00 24 1004.6
20260504234702 31 104 3.2 11.3 0.00 0.00 0.00 25 1004.5
20260504234602 31 127 4.8 11.3 0.00 0.00 0.00 25 1004.5
20260504234501 31 125 3.2 11.3 0.00 0.00 0.00 24 1004.5
20260504234401 31 115 4.8 11.3 0.00 0.00 0.00 25 1004.5
20260504234300 31 100 4.8 11.3 0.00 0.00 0.00 24 1004.5
20260504234205 31 66 3.2 11.3 0.00 0.00 0.00 25 1004.6
20260504234132 31 84 3.2 9.7 0.00 0.00 0.00 25 1004.6
20260504234117 31 115 4.8 9.7 0.00 0.00 0.00 25 1004.6
20260504234106 31 352 4.8 9.7 0.00 0.00 0.00 25 1004.6
20260504234053 31 61 3.2 9.7 0.00 0.00 0.00 25 1004.6
20260504233500 31 63 3.2 12.9 0.00 0.00 0.00 26 1004.6
20260504233402 31 9 3.2 12.9 0.00 0.00 0.00 25 1004.6
20260504233302 31 53 4.8 12.9 0.00 0.00 0.00 26 1004.5
20260504233204 30 319 4.8 12.9 0.00 0.00 0.00 25 1004.5
20260504233104 31 0 6.4 12.9 0.00 0.00 0.00 25 1004.5
20260504233001 31 0 6.4 12.9 0.00 0.00 0.00 25 1004.5
20260504232938 31 0 6.4 12.9 0.00 0.00 0.00 24 1004.6
20260504232925 31 352 3.2 12.9 0.00 0.00 0.00 26 1004.5
20260504232636 31 352 4.8 9.7 0.00 0.00 0.00 24 1004.5
20260504232624 31 34 6.4 9.7 0.00 0.00 0.00 24 1004.5
20260504232613 31 347 4.8 9.7 0.00 0.00 0.00 24 1004.6
20260504232601 31 5 3.2 8.0 0.00 0.00 0.00 24 1004.5
20260504232520 31 32 1.6 9.7 0.00 0.00 0.00 25 1004.6
20260504232455 31 24 1.6 9.7 0.00 0.00 0.00 25 1004.5
20260504232225 31 221 3.2 9.7 0.00 0.00 0.00 24 1004.6
20260504231951 31 322 1.6 9.7 0.00 0.00 0.00 24 1004.6
20260504231709 31 26 4.8 9.7 0.00 0.00 0.00 24 1004.6
20260504231141 31 32 3.2 9.7 0.00 0.00 0.00 25 1004.6
20260504231028 31 352 3.2 9.7 0.00 0.00 0.00 24 1004.6
20260504230930 31 316 4.8 9.7 0.00 0.00 0.00 25 1004.7
20260504230856 31 44 4.8 9.7 0.00 0.00 0.00 25 1004.7
20260504230841 31 88 3.2 9.7 0.00 0.00 0.00 26 1004.7
20260504230829 31 53 1.6 8.0 0.00 0.00 0.00 26 1004.7
20260504230804 31 288 3.2 8.0 0.00 0.00 0.00 25 1004.6
20260504230534 31 85 4.8 8.0 0.00 0.00 0.00 26 1004.7
20260504230520 31 5 3.2 8.0 0.00 0.00 0.00 25 1004.7
20260504225932 31 317 6.4 8.0 0.00 0.00 0.00 25 1004.8
20260504225828 31 29 4.8 8.0 0.00 0.00 0.00 25 1004.8
20260504225733 31 330 3.2 12.9 0.00 0.00 0.00 26 1004.8
20260504225652 31 25 1.6 14.5 0.00 0.00 0.00 25 1004.7
20260504225626 31 17 3.2 14.5 0.00 0.00 0.00 25 1004.7
20260504225616 31 209 4.8 14.5 0.00 0.00 0.00 24 1004.7
20260504225605 31 70 3.2 14.5 0.00 0.00 0.00 24 1004.8
20260504225551 31 77 3.2 14.5 0.00 0.00 0.00 24 1004.8
20260504224932 31 20 4.8 14.5 0.00 0.00 0.00 25 1004.8
20260504224831 31 346 6.4 14.5 0.00 0.00 0.00 24 1004.8
20260504224731 31 5 4.8 14.5 0.00 0.00 0.00 25 1004.8
20260504224630 31 346 3.2 8.0 0.00 0.00 0.00 26 1004.8
20260504224531 31 266 1.6 6.4 0.00 0.00 0.00 25 1004.7
20260504224429 31 254 1.6 6.4 0.00 0.00 0.00 26 1004.8
20260504224330 31 327 3.2 6.4 0.00 0.00 0.00 25 1004.8
20260504224229 30 306 3.2 8.0 0.00 0.00 0.00 25 1004.8
20260504224130 30 260 3.2 9.7 0.00 0.00 0.00 25 1004.8
20260504224028 30 5 3.2 9.7 0.00 0.00 0.00 27 1004.9
20260504223930 30 64 3.2 9.7 0.00 0.00 0.00 25 1004.9
20260504223855 30 184 3.2 11.3 0.00 0.00 0.00 26 1004.9
20260504223844 30 252 3.2 11.3 0.00 0.00 0.00 25 1005.0
20260504223831 30 248 3.2 11.3 0.00 0.00 0.00 26 1005.0
20260504223809 30 19 3.2 11.3 0.00 0.00 0.00 25 1005.0
20260504223229 30 330 3.2 11.3 0.00 0.00 0.00 26 1005.1
20260504223133 30 79 4.8 11.3 0.00 0.00 0.00 25 1005.0
20260504223029 30 68 4.8 11.3 0.00 0.00 0.00 25 1005.0
20260504222931 30 13 3.2 11.3 0.00 0.00 0.00 25 1005.1
20260504222829 30 74 4.8 8.0 0.00 0.00 0.00 25 1005.1
20260504222733 30 83 4.8 8.0 0.00 0.00 0.00 25 1005.1
20260504222632 30 40 4.8 11.3 0.00 0.00 0.00 27 1005.2
20260504222604 30 352 3.2 11.3 0.00 0.00 0.00 25 1005.1
20260504222552 30 9 1.6 11.3 0.00 0.00 0.00 25 1005.2
20260504222229 30 264 3.2 11.3 0.00 0.00 0.00 25 1005.2
20260504222130 30 260 3.2 11.3 0.00 0.00 0.00 25 1005.2
20260504222057 30 274 3.2 11.3 0.00 0.00 0.00 25 1005.2
20260504222044 30 287 4.8 11.3 0.00 0.00 0.00 26 1005.2
20260504221724 30 336 3.2 11.3 0.00 0.00 0.00 26 1005.3
20260504221621 30 352 3.2 9.7 0.00 0.00 0.00 25 1005.3
20260504221523 30 53 3.2 12.9 0.00 0.00 0.00 25 1005.3
20260504221447 30 47 3.2 12.9 0.00 0.00 0.00 25 1005.3
20260504221437 30 5 3.2 12.9 0.00 0.00 0.00 27 1005.4
20260504221118 30 67 3.2 14.5 0.00 0.00 0.00 26 1005.4
20260504221047 30 46 4.8 14.5 0.00 0.00 0.00 25 1005.4
20260504221034 30 62 3.2 14.5 0.00 0.00 0.00 25 1005.4
20260504220714 30 115 4.8 14.5 0.00 0.00 0.00 25 1005.4
20260504220614 30 86 4.8 14.5 0.00 0.00 0.00 26 1005.4
20260504220510 30 338 3.2 14.5 0.00 0.00 0.00 25 1005.5
20260504220407 30 308 4.8 14.5 0.00 0.00 0.00 26 1005.5
20260504220309 30 164 4.8 14.5 0.00 0.00 0.00 25 1005.5
20260504220207 30 11 4.8 14.5 0.00 0.00 0.00 26 1005.5
20260504220110 30 65 4.8 14.5 0.00 0.00 0.00 26 1005.5
20260504220006 30 69 4.8 14.5 0.00 0.00 0.00 25 1005.5
20260504215909 30 113 3.2 8.0 0.00 0.00 0.00 26 1005.5
20260504215852 30 5 1.6 8.0 0.00 0.00 0.00 25 1005.5
20260504215841 30 323 3.2 8.0 0.00 0.00 0.00 25 1005.5
20260504215829 30 28 3.2 9.7 0.00 0.00 0.00 26 1005.5
20260504215809 30 299 3.2 12.9 0.00 0.00 0.00 26 1005.5
20260504215757 30 333 1.6 12.9 0.00 0.00 0.00 25 1005.5
20260504215525 30 350 3.2 12.9 0.00 0.00 0.00 25 1005.5
20260504214901 30 351 4.8 12.9 0.00 0.00 0.00 26 1005.7
20260504214804 30 13 8.0 12.9 0.00 0.00 0.00 26 1005.7
20260504214702 30 275 6.4 12.9 0.00 0.00 0.00 27 1005.7
20260504214607 30 313 3.2 12.9 0.00 0.00 0.00 27 1005.7
20260504214457 30 334 4.8 12.9 0.00 0.00 0.00 26 1005.7
20260504214427 30 281 6.4 12.9 0.00 0.00 0.00 25 1005.6
20260504214414 30 294 3.2 9.7 0.00 0.00 0.00 26 1005.7
20260504214054 30 306 4.8 9.7 0.00 0.00 0.00 27 1005.7
20260504213913 30 255 6.4 12.9 0.00 0.00 0.00 26 1005.8
20260504213814 30 329 6.4 12.9 0.00 0.00 0.00 27 1005.8
20260504213716 30 277 4.8 12.9 0.00 0.00 0.00 25 1005.8
20260504213649 30 36 4.8 12.9 0.00 0.00 0.00 25 1005.9
20260504213636 30 0 4.8 12.9 0.00 0.00 0.00 27 1005.8
20260504213623 30 74 1.6 12.9 0.00 0.00 0.00 26 1005.8
20260504213611 30 22 3.2 12.9 0.00 0.00 0.00 25 1005.8
20260504213559 30 11 3.2 12.9 0.00 0.00 0.00 26 1005.9
20260504213538 30 289 3.2 12.9 0.00 0.00 0.00 26 1005.8
20260504213306 30 38 4.8 12.9 0.00 0.00 0.00 26 1005.8
20260504213254 30 164 6.4 12.9 0.00 0.00 0.00 26 1005.8
20260504213243 30 283 6.4 11.3 0.00 0.00 0.00 25 1005.8
20260504212959 30 298 3.2 11.3 0.00 0.00 0.00 26 1005.8
20260504212505 30 308 3.2 11.3 0.00 0.00 0.00 25 1005.9
20260504212443 30 349 6.4 11.3 0.00 0.00 0.00 26 1006.0
20260504211922 30 321 4.8 11.3 0.00 0.00 0.00 26 1006.0
20260504211601 30 290 3.2 9.7 0.00 0.00 0.00 29 1006.0
20260504211502 29 306 3.2 8.0 0.00 0.00 0.00 28 1006.0
20260504211431 29 346 3.2 8.0 0.00 0.00 0.00 28 1006.0
20260504211420 29 16 3.2 8.0 0.00 0.00 0.00 26 1006.0
20260504211058 29 321 3.2 8.0 0.00 0.00 0.00 27 1006.1
20260504211000 29 315 3.2 12.9 0.00 0.00 0.00 29 1006.1
20260504210857 29 313 3.2 14.5 0.00 0.00 0.00 27 1006.1
20260504210757 29 46 3.2 14.5 0.00 0.00 0.00 27 1006.1
20260504210656 29 28 4.8 14.5 0.00 0.00 0.00 28 1006.2
20260504210555 29 309 4.8 14.5 0.00 0.00 0.00 27 1006.2
20260504210454 29 304 4.8 14.5 0.00 0.00 0.00 30 1006.2
20260504210425 29 25 3.2 14.5 0.00 0.00 0.00 27 1006.2
20260504210414 29 0 4.8 14.5 0.00 0.00 0.00 29 1006.2
20260504210051 28 332 6.4 14.5 0.00 0.00 0.00 27 1006.3
20260504205949 29 294 6.4 14.5 0.00 0.00 0.00 28 1006.2
20260504205849 29 327 4.8 14.5 0.00 0.00 0.00 28 1006.3
20260504205748 29 254 4.8 14.5 0.00 0.00 0.00 27 1006.3
20260504205647 29 273 4.8 14.5 0.00 0.00 0.00 27 1006.3
20260504205547 29 15 6.4 14.5 0.00 0.00 0.00 26 1006.3
20260504205447 29 286 8.0 14.5 0.00 0.00 0.00 28 1006.4
20260504205419 29 323 6.4 14.5 0.00 0.00 0.00 29 1006.4
20260504205408 29 288 6.4 14.5 0.00 0.00 0.00 29 1006.4
20260504205051 29 345 3.2 12.9 0.00 0.00 0.00 29 1006.4
20260504205037 28 318 3.2 12.9 0.00 0.00 0.00 28 1006.4
20260504205026 28 0 4.8 12.9 0.00 0.00 0.00 27 1006.4
20260504205014 28 322 6.4 12.9 0.00 0.00 0.00 26 1006.5
20260504204932 28 317 3.2 12.9 0.00 0.00 0.00 28 1006.5
20260504204341 28 321 4.8 12.9 0.00 0.00 0.00 29 1006.5
20260504204306 28 275 4.8 11.3 0.00 0.00 0.00 29 1006.5
20260504204253 28 291 3.2 11.3 0.00 0.00 0.00 31 1006.6
20260504204231 28 347 6.4 11.3 0.00 0.00 0.00 29 1006.5
20260504203958 28 336 3.2 11.3 0.00 0.00 0.00 30 1006.6
20260504203635 28 95 4.8 12.9 0.00 0.00 0.00 28 1006.6
20260504203534 28 305 6.4 12.9 0.00 0.00 0.00 29 1006.6
20260504203507 28 25 6.4 12.9 0.00 0.00 0.00 28 1006.6
20260504203454 28 337 4.8 12.9 0.00 0.00 0.00 30 1006.6
20260504203444 28 346 4.8 12.9 0.00 0.00 0.00 28 1006.6
20260504203429 28 0 4.8 12.9 0.00 0.00 0.00 30 1006.6
20260504203408 28 284 3.2 12.9 0.00 0.00 0.00 29 1006.7
20260504203135 28 323 6.4 12.9 0.00 0.00 0.00 29 1006.7
20260504203123 28 346 4.8 12.9 0.00 0.00 0.00 29 1006.7
20260504202843 28 348 3.2 14.5 0.00 0.00 0.00 32 1006.6
20260504202830 28 292 3.2 14.5 0.00 0.00 0.00 30 1006.6
20260504202029 28 71 8.0 17.7 0.00 0.00 0.00 30 1006.7
20260504201928 28 329 6.4 17.7 0.00 0.00 0.00 30 1006.7
20260504201827 28 5 6.4 17.7 0.00 0.00 0.00 29 1006.7
20260504201726 28 0 6.4 17.7 0.00 0.00 0.00 30 1006.8
20260504201629 28 5 4.8 17.7 0.00 0.00 0.00 29 1006.8
20260504201600 28 331 6.4 17.7 0.00 0.00 0.00 29 1006.7
20260504201546 28 40 8.0 17.7 0.00 0.00 0.00 28 1006.8
20260504201223 28 336 6.4 17.7 0.00 0.00 0.00 29 1006.8
20260504201123 28 317 4.8 12.9 0.00 0.00 0.00 29 1006.7
20260504201054 28 265 4.8 12.9 0.00 0.00 0.00 28 1006.8
20260504201041 28 350 4.8 12.9 0.00 0.00 0.00 29 1006.8
20260504200720 28 337 6.4 12.9 0.00 0.00 0.00 29 1006.8
20260504200619 28 346 6.4 12.9 0.00 0.00 0.00 29 1006.8
20260504200519 28 24 4.8 12.9 0.00 0.00 0.00 30 1006.8
20260504200420 28 298 6.4 12.9 0.00 0.00 0.00 29 1006.8
20260504200317 28 332 6.4 12.9 0.00 0.00 0.00 29 1006.8
20260504200258 28 338 6.4 12.9 0.00 0.00 0.00 30 1006.8
20260504200246 28 5 3.2 12.9 0.00 0.00 0.00 30 1006.8
20260504195946 28 25 6.4 12.9 0.00 0.00 0.00 31 1006.8
20260504195935 28 84 4.8 12.9 0.00 0.00 0.00 30 1006.8
20260504195656 28 9 6.4 12.9 0.00 0.00 0.00 30 1006.9
20260504195633 28 288 6.4 12.9 0.00 0.00 0.00 31 1006.9
20260504195310 28 283 1.6 8.0 0.00 0.00 0.00 30 1006.9
20260504195211 28 277 1.6 8.0 0.00 0.00 0.00 30 1006.9
20260504195147 28 326 1.6 8.0 0.00 0.00 0.00 29 1006.9
20260504195123 28 352 1.6 8.0 0.00 0.00 0.00 30 1006.9
20260504195112 28 321 3.2 8.0 0.00 0.00 0.00 30 1006.8
20260504195101 28 313 4.8 8.0 0.00 0.00 0.00 30 1006.9
20260504194830 28 295 4.8 11.3 0.00 0.00 0.00 32 1006.9
20260504194807 28 17 3.2 11.3 0.00 0.00 0.00 30 1006.8
20260504194753 28 112 3.2 11.3 0.00 0.00 0.00 30 1006.8
20260504194742 28 112 3.2 17.7 0.00 0.00 0.00 30 1006.8
20260504193902 27 296 4.8 17.7 0.00 0.00 0.00 32 1006.8
20260504193801 27 301 4.8 17.7 0.00 0.00 0.00 32 1006.8
20260504193703 27 258 4.8 17.7 0.00 0.00 0.00 31 1006.8
20260504193603 27 325 9.7 17.7 0.00 0.00 0.00 31 1006.8
20260504193500 27 284 9.7 17.7 0.00 0.00 0.00 30 1006.8
20260504193358 27 256 4.8 17.7 0.00 0.00 0.00 30 1006.8
20260504193258 27 258 1.6 11.3 0.00 0.00 0.00 32 1006.9
20260504193158 27 251 1.6 6.4 0.00 0.00 0.00 31 1006.8
20260504193138 27 142 1.6 6.4 0.00 0.00 0.00 30 1006.9
20260504193114 27 205 3.2 6.4 0.00 0.00 0.00 31 1007.0
20260504192753 27 292 3.2 6.4 0.00 0.00 0.00 33 1007.0
20260504192652 27 173 3.2 6.4 0.00 0.00 0.00 31 1007.0
20260504192624 27 238 4.8 11.3 0.00 0.00 0.00 32 1007.0
20260504192559 27 319 3.2 11.3 0.00 0.00 0.00 32 1006.9
20260504192548 27 290 3.2 11.3 0.00 0.00 0.00 33 1007.0
20260504192534 27 280 3.2 11.3 0.00 0.00 0.00 32 1007.0
20260504191948 27 331 4.8 11.3 0.00 0.00 0.00 32 1007.0
20260504191848 27 278 4.8 11.3 0.00 0.00 0.00 34 1007.1
20260504191748 27 288 4.8 11.3 0.00 0.00 0.00 33 1007.0
20260504191649 27 294 3.2 11.3 0.00 0.00 0.00 33 1007.1
20260504191555 27 296 4.8 9.7 0.00 0.00 0.00 31 1007.1
20260504191446 27 0 6.4 9.7 0.00 0.00 0.00 31 1007.1
20260504191343 27 350 6.4 9.7 0.00 0.00 0.00 32 1007.1
20260504191242 27 332 6.4 9.7 0.00 0.00 0.00 32 1007.1
20260504191143 27 351 6.4 9.7 0.00 0.00 0.00 32 1007.1
20260504191050 27 5 6.4 9.7 0.00 0.00 0.00 33 1007.2
20260504190941 27 269 4.8 9.7 0.00 0.00 0.00 34 1007.2
20260504190840 27 318 4.8 9.7 0.00 0.00 0.00 33 1007.2
20260504190740 27 315 4.8 9.7 0.00 0.00 0.00 32 1007.2
20260504190639 27 271 4.8 9.7 0.00 0.00 0.00 34 1007.2
20260504190539 27 301 4.8 11.3 0.00 0.00 0.00 34 1007.2
20260504190438 27 22 4.8 11.3 0.00 0.00 0.00 34 1007.2
20260504190337 27 5 6.4 11.3 0.00 0.00 0.00 33 1007.3
20260504190236 27 347 4.8 11.3 0.00 0.00 0.00 33 1007.3
20260504190139 27 0 4.8 11.3 0.00 0.00 0.00 33 1007.3
20260504190036 27 315 4.8 11.3 0.00 0.00 0.00 34 1007.3
20260504185935 27 346 3.2 11.3 0.00 0.00 0.00 35 1007.3
20260504185836 27 0 4.8 11.3 0.00 0.00 0.00 35 1007.4
20260504185734 26 273 6.4 11.3 0.00 0.00 0.00 34 1007.4
20260504185633 26 261 3.2 11.3 0.00 0.00 0.00 34 1007.4
20260504185533 26 287 1.6 9.7 0.00 0.00 0.00 37 1007.4
20260504185502 26 9 3.2 9.7 0.00 0.00 0.00 37 1007.4
20260504185450 26 71 3.2 9.7 0.00 0.00 0.00 34 1007.4
20260504185131 26 287 3.2 9.7 0.00 0.00 0.00 34 1007.4
20260504185029 26 20 4.8 9.7 0.00 0.00 0.00 33 1007.5
20260504184933 26 346 4.8 9.7 0.00 0.00 0.00 32 1007.4
20260504184829 26 333 6.4 12.9 0.00 0.00 0.00 32 1007.5
20260504184730 26 259 6.4 12.9 0.00 0.00 0.00 33 1007.4
20260504184629 26 275 6.4 12.9 0.00 0.00 0.00 35 1007.4
20260504184531 26 269 3.2 12.9 0.00 0.00 0.00 35 1007.4
20260504184446 26 267 3.2 12.9 0.00 0.00 0.00 37 1007.4
20260504184433 26 330 3.2 12.9 0.00 0.00 0.00 36 1007.5
20260504184421 26 296 3.2 12.9 0.00 0.00 0.00 37 1007.4
20260504184029 26 253 4.8 12.9 0.00 0.00 0.00 36 1007.5
20260504183930 26 289 4.8 12.9 0.00 0.00 0.00 37 1007.5
20260504183830 26 343 3.2 11.3 0.00 0.00 0.00 36 1007.5
20260504183733 26 287 3.2 11.3 0.00 0.00 0.00 35 1007.5
20260504183714 26 340 3.2 11.3 0.00 0.00 0.00 37 1007.5
20260504183657 26 333 3.2 11.3 0.00 0.00 0.00 38 1007.5
20260504183334 26 292 3.2 11.3 0.00 0.00 0.00 38 1007.5
20260504183228 26 16 4.8 11.3 0.00 0.00 0.00 37 1007.5
20260504183133 26 5 6.4 11.3 0.00 0.00 0.00 39 1007.5
20260504183038 26 333 6.4 11.3 0.00 0.00 0.00 38 1007.5
20260504182933 26 0 3.2 8.0 0.00 0.00 0.00 40 1007.6
20260504182900 26 0 3.2 8.0 0.00 0.00 0.00 38 1007.5
20260504182849 26 59 3.2 8.0 0.00 0.00 0.00 38 1007.6
20260504182541 25 15 1.6 8.0 0.00 0.00 0.00 40 1007.6
20260504182425 25 76 3.2 8.0 0.00 0.00 0.00 39 1007.5
20260504182326 25 286 4.8 8.0 0.00 0.00 0.00 39 1007.6
20260504182224 25 5 4.8 8.0 0.00 0.00 0.00 39 1007.6
20260504182127 25 343 3.2 8.0 0.00 0.00 0.00 39 1007.6
20260504182022 25 9 1.6 8.0 0.00 0.00 0.00 41 1007.5
20260504181924 25 209 3.2 12.9 0.00 0.00 0.00 39 1007.5
20260504181822 25 0 3.2 12.9 0.00 0.00 0.00 39 1007.5
20260504181726 25 314 4.8 12.9 0.00 0.00 0.00 39 1007.6
20260504181620 25 344 3.2 12.9 0.00 0.00 0.00 39 1007.6
20260504181521 25 315 4.8 12.9 0.00 0.00 0.00 39 1007.6
20260504181420 25 327 3.2 12.9 0.00 0.00 0.00 38 1007.6
20260504181319 25 321 3.2 12.9 0.00 0.00 0.00 39 1007.6
20260504181242 25 13 4.8 12.9 0.00 0.00 0.00 38 1007.6
20260504181118 25 0 4.8 12.9 0.00 0.00 0.00 38 1007.6
20260504181017 25 12 6.4 12.9 0.00 0.00 0.00 38 1007.6
20260504180917 25 342 4.8 9.7 0.00 0.00 0.00 39 1007.7
20260504180819 25 285 3.2 8.0 0.00 0.00 0.00 38 1007.7
20260504180715 25 0 1.6 8.0 0.00 0.00 0.00 41 1007.6
20260504180614 25 22 1.6 8.0 0.00 0.00 0.00 41 1007.6
20260504180515 25 60 3.2 8.0 0.00 0.00 0.00 42 1007.6
20260504180441 25 352 3.2 8.0 0.00 0.00 0.00 40 1007.6
20260504180428 25 352 1.6 8.0 0.00 0.00 0.00 41 1007.6
20260504180007 25 352 4.8 9.7 0.00 0.00 0.00 40 1007.6
20260504175953 25 9 3.2 9.7 0.00 0.00 0.00 40 1007.6
20260504175941 25 16 1.6 9.7 0.00 0.00 0.00 40 1007.6
20260504175930 25 5 3.2 9.7 0.00 0.00 0.00 40 1007.6
20260504175917 25 277 4.8 9.7 0.00 0.00 0.00 40 1007.6
20260504175855 25 352 4.8 9.7 0.00 0.00 0.00 40 1007.6
20260504175842 25 340 3.2 9.7 0.00 0.00 0.00 40 1007.6
20260504175831 24 9 3.2 9.7 0.00 0.00 0.00 42 1007.6
20260504174813 24 31 3.2 11.3 0.00 0.00 0.00 40 1007.6
20260504174802 24 26 3.2 11.3 0.00 0.00 0.00 41 1007.6
20260504174750 24 302 3.2 11.3 0.00 0.00 0.00 43 1007.6
20260504174501 23 290 3.2 11.3 0.00 0.00 0.00 41 1007.6
20260504174450 23 304 1.6 11.3 0.00 0.00 0.00 43 1007.6
20260504174102 23 349 6.4 11.3 0.00 0.00 0.00 41 1007.6
20260504174001 23 325 6.4 11.3 0.00 0.00 0.00 41 1007.6
20260504173902 24 38 3.2 11.3 0.00 0.00 0.00 41 1007.7
20260504173800 24 346 3.2 8.0 0.00 0.00 0.00 42 1007.7
20260504173703 24 324 3.2 8.0 0.00 0.00 0.00 42 1007.6
20260504173631 24 333 3.2 8.0 0.00 0.00 0.00 41 1007.7
20260504173615 24 340 3.2 8.0 0.00 0.00 0.00 43 1007.7
20260504173558 23 5 4.8 8.0 0.00 0.00 0.00 43 1007.7
20260504173545 23 46 3.2 8.0 0.00 0.00 0.00 43 1007.7
20260504173048 23 23 3.2 8.0 0.00 0.00 0.00 40 1007.6
20260504173023 23 347 3.2 6.4 0.00 0.00 0.00 41 1007.7
20260504172704 23 289 3.2 8.0 0.00 0.00 0.00 41 1007.7
20260504172604 23 275 3.2 8.0 0.00 0.00 0.00 40 1007.7
20260504172549 23 352 3.2 8.0 0.00 0.00 0.00 40 1007.7
20260504172525 23 344 3.2 8.0 0.00 0.00 0.00 41 1007.7
20260504172201 23 71 1.6 8.0 0.00 0.00 0.00 43 1007.7
20260504172102 23 352 3.2 8.0 0.00 0.00 0.00 43 1007.7
20260504172012 23 328 3.2 8.0 0.00 0.00 0.00 44 1007.7
20260504171903 23 46 3.2 8.0 0.00 0.00 0.00 42 1007.7
20260504171801 23 25 3.2 8.0 0.00 0.00 0.00 42 1007.7
20260504171702 23 25 3.2 6.4 0.00 0.00 0.00 41 1007.7
20260504171604 23 30 3.2 6.4 0.00 0.00 0.00 43 1007.7
20260504171546 23 24 3.2 6.4 0.00 0.00 0.00 43 1007.7
20260504171520 23 58 3.2 8.0 0.00 0.00 0.00 43 1007.7
20260504171509 23 76 1.6 8.0 0.00 0.00 0.00 45 1007.7
20260504171456 23 341 1.6 8.0 0.00 0.00 0.00 45 1007.7
20260504171226 23 72 3.2 8.0 0.00 0.00 0.00 45 1007.7
20260504171133 23 47 1.6 8.0 0.00 0.00 0.00 46 1007.7
20260504170902 23 31 3.2 8.0 0.00 0.00 0.00 45 1007.7
20260504170848 22 341 3.2 8.0 0.00 0.00 0.00 46 1007.7
20260504170257 22 180 1.6 4.8 0.00 0.00 0.00 46 1007.7
20260504170157 22 245 1.6 4.8 0.00 0.00 0.00 46 1007.7
20260504160402 20 292 3.2 6.4 0.00 0.00 0.00 55 1007.8
20260504160301 20 5 3.2 6.4 0.00 0.00 0.00 55 1007.8
20260504160201 20 344 3.2 6.4 0.00 0.00 0.00 54 1007.8
20260504160105 20 48 3.2 6.4 0.00 0.00 0.00 55 1007.8